Location: Dallas
(32.7833°N, 96.8000°W)
Time: 22:53:30
(UTC-05:00)

N. Korean satellite - Pass Details

Date: 18 August 2020
Orbit: 455 x 503 km, 97.2° (Epoch: 22 September)

Event Time Altitude Azimuth Distance (km) Brightness Sun altitude
Rises 05:59:50 0° 36° (NE) 2,558 11.3 -11.4°
Reaches altitude 10° 06:02:49 10° 64° (ENE) 1,683 10.9 -10.8°
Maximum altitude 06:04:39 13° 94° (E) 1,485 10.1 -10.4°
Drops below altitude 10° 06:06:29 10° 125° (SE) 1,689 9.8 -10.1°
Sets 06:09:29 0° 152° (SSE) 2,574 10.3 -9.5°
